Terug naar catalogus

STARLINK-34520

ActiefCommunicatieVLEO
NORAD 64486·PAYLOAD·🇺🇸 United States

Gelanceerd Jun 23, 2025 vanaf Cape Canaveral Space Force Station

Loading…

Volgende Passages (komende 24 uur)

TLE

VersSource: CelesTrak SupGP

Epoch: Sep 14, 2026, 23:07 UTC

1 64486C 25133Q   26257.96368056  .00038005  00000+0  11242-2 0  2571
2 64486  53.1580 315.3876 0001438  87.7694 100.5752 15.34333749    15

Volg STARLINK-34520 in realtime met AllMySat

Download on the App Store